This is the latest recevied weather packets stored in our database for station/object K6JWN. If no packets are shown the sender has not sent any weather packets the latest 1 day(s).
| Time | Temp. | Humidity | Pressure | Rain* | Wind** | Luminosity | Snow |
|---|---|---|---|---|---|---|---|
| 1778024957 | 18.89° C | 64% | 1014.2 hPa | 0 mm | 2.24 m/s, 225° | - | - |
| 1778024357 | 19.44° C | 63% | 1014.1 hPa | 0 mm | 1.79 m/s, 225° | - | - |
| 1778023757 | 20° C | 61% | 1014 hPa | 0 mm | 3.13 m/s, 225° | - | - |
| 1778023157 | 20° C | 60% | 1014 hPa | 0 mm | 0.89 m/s, 225° | - | - |
| 1778022557 | 20° C | 62% | 1013.9 hPa | 0 mm | 1.79 m/s, 225° | - | - |
| 1778021957 | 20° C | 61% | 1014.2 hPa | 0 mm | 1.34 m/s, 225° | - | - |
| 1778021357 | 20° C | 61% | 1014.1 hPa | 0 mm | 1.79 m/s, 225° | - | - |
| 1778020757 | 20° C | 62% | 1014.2 hPa | 0 mm | 1.34 m/s, 225° | - | - |
| 1778020157 | 19.44° C | 62% | 1014.4 hPa | 0 mm | 0.89 m/s, 45° | - | - |
| 1778019557 | 19.44° C | 65% | 1014.4 hPa | 0 mm | 0.45 m/s, 225° | - | - |
| 1778018957 | 18.33° C | 67% | 1014.5 hPa | 0 mm | 1.34 m/s, 225° | - | - |
| 1778018357 | 18.33° C | 68% | 1014.6 hPa | 0 mm | 0.89 m/s, 225° | - | - |
| 1778017757 | 17.78° C | 66% | 1014.7 hPa | 0 mm | 0.89 m/s, 225° | - | - |
| 1778017157 | 17.78° C | 69% | 1014.7 hPa | 0 mm | 1.79 m/s, 225° | - | - |
| 1778016557 | 17.22° C | 68% | 1014.8 hPa | 0 mm | 2.24 m/s, 225° | - | - |
| 1778015957 | 17.22° C | 70% | 1014.8 hPa | 0 mm | 2.68 m/s, 225° | - | - |
| 1778015357 | 17.78° C | 70% | 1014.8 hPa | 0 mm | 1.79 m/s, 225° | - | - |
| 1778014757 | 17.78° C | 68% | 1014.9 hPa | 0 mm | 3.13 m/s, 225° | - | - |
| 1778014157 | 18.33° C | 64% | 1014.9 hPa | 0 mm | 2.24 m/s, 225° | - | - |
| 1778013557 | 18.33° C | 65% | 1015 hPa | 0 mm | 0.45 m/s, 45° | - | - |
| 1778012957 | 17.78° C | 64% | 1014.9 hPa | 0 mm | 0.89 m/s, 45° | - | - |
| 1778011757 | 17.22° C | 67% | 1015.1 hPa | 0 mm | 0.45 m/s, 225° | - | - |
| 1778011157 | 16.67° C | 69% | 1015.1 hPa | 0 mm | 0.89 m/s, 45° | - | - |
| 1778010557 | 16.67° C | 68% | 1015.1 hPa | 0 mm | 1.79 m/s, 45° | - | - |
| 1778009957 | 16.67° C | 69% | 1015.2 hPa | 0 mm | 1.79 m/s, 225° | - | - |
* Rain latest hour (hover to see other rain measurements)
** Current wind speed in m/s (hover to see current wind gust speed)